EAL1121 PHNL-PHLI

Flight info

Callsign EAL1121
Flight time 0h 37m
Altitude 14000
Route KEOLA3 LIH
Aircraft A359/H-SDE2E3GHIJ3J4J5LM1ORWXY/LB1D1

Departure

Time 2026-04-23 01:40
Airport Daniel K. Inouye International Airport (PHNL)

Arrival

Time 2026-04-23 02:17
Airport Lihue Airport (PHLI)
Time Latitude Longitude Altitude Speed Heading
2026-04-23 01:19 21.32799 -157.91246 42 ft 0 kts 238°
2026-04-23 01:23 21.32799 -157.91248 42 ft 1 kts 239°
2026-04-23 01:23 21.32783 -157.91273 41 ft 7 kts 231°
2026-04-23 01:23 21.32723 -157.91324 39 ft 14 kts 221°
2026-04-23 01:24 21.32684 -157.91444 37 ft 20 kts 269°
2026-04-23 01:24 21.32686 -157.91612 36 ft 25 kts 270°
2026-04-23 01:24 21.32686 -157.91818 35 ft 28 kts 269°
2026-04-23 01:24 21.32686 -157.92035 38 ft 28 kts 272°
2026-04-23 01:25 21.32693 -157.92248 43 ft 28 kts 271°
2026-04-23 01:25 21.32690 -157.92461 44 ft 29 kts 269°
2026-04-23 01:25 21.32690 -157.92682 44 ft 30 kts 271°
2026-04-23 01:25 21.32736 -157.92909 40 ft 32 kts 275°
2026-04-23 01:26 21.32742 -157.93159 38 ft 34 kts 270°
2026-04-23 01:26 21.32739 -157.93420 38 ft 35 kts 270°
2026-04-23 01:26 21.32741 -157.93687 40 ft 36 kts 269°
2026-04-23 01:26 21.32740 -157.93959 40 ft 37 kts 269°
2026-04-23 01:27 21.32740 -157.94205 38 ft 22 kts 271°
2026-04-23 01:27 21.32730 -157.94354 38 ft 18 kts 252°
2026-04-23 01:27 21.32726 -157.94374 38 ft 0 kts 274°
2026-04-23 01:27 21.32731 -157.94383 38 ft 2 kts 302°
2026-04-23 01:28 21.32743 -157.94406 38 ft 4 kts 295°
2026-04-23 01:28 21.32744 -157.94429 38 ft 2 kts 228°
2026-04-23 01:28 21.32724 -157.94421 38 ft 4 kts 136°
2026-04-23 01:28 21.32699 -157.94385 38 ft 6 kts 125°
2026-04-23 01:29 21.32668 -157.94344 38 ft 1 kts 130°
2026-04-23 01:34 21.32668 -157.94342 38 ft 0 kts 130°
2026-04-23 01:34 21.32666 -157.94341 38 ft 0 kts 131°
2026-04-23 01:34 21.32665 -157.94339 38 ft 0 kts 131°
2026-04-23 01:35 21.32663 -157.94338 38 ft 0 kts 131°
2026-04-23 01:35 21.32657 -157.94330 38 ft 2 kts 132°
2026-04-23 01:35 21.32643 -157.94315 38 ft 3 kts 134°
2026-04-23 01:35 21.32620 -157.94290 38 ft 5 kts 138°
2026-04-23 01:36 21.32599 -157.94272 38 ft 6 kts 141°
2026-04-23 01:36 21.32598 -157.94270 38 ft 6 kts 141°
2026-04-23 01:36 21.32556 -157.94238 38 ft 8 kts 146°
2026-04-23 01:36 21.32529 -157.94212 38 ft 3 kts 111°
2026-04-23 01:37 21.32524 -157.94180 38 ft 5 kts 95°
2026-04-23 01:37 21.32523 -157.94168 38 ft 0 kts 90°
2026-04-23 01:39 21.32523 -157.94165 38 ft 1 kts 89°
2026-04-23 01:39 21.32528 -157.94099 38 ft 35 kts 86°
2026-04-23 01:39 21.32531 -157.93509 36 ft 121 kts 92°
2026-04-23 01:40 21.32526 -157.92325 85 ft 186 kts 90°
2026-04-23 01:40 21.32432 -157.90932 921 ft 195 kts 96°
2026-04-23 01:40 21.32318 -157.89398 1613 ft 220 kts 91°
2026-04-23 01:40 21.32279 -157.87726 2424 ft 231 kts 90°
2026-04-23 01:41 21.32249 -157.85938 2967 ft 248 kts 89°
2026-04-23 01:41 21.32219 -157.84039 3600 ft 260 kts 89°
2026-04-23 01:41 21.32187 -157.82100 4393 ft 265 kts 89°
2026-04-23 01:41 21.32156 -157.80276 5143 ft 270 kts 89°
2026-04-23 01:42 21.32137 -157.79231 5568 ft 272 kts 89°
2026-04-23 01:42 21.32101 -157.77194 6381 ft 277 kts 89°
2026-04-23 01:42 21.32065 -157.75116 7203 ft 281 kts 89°
2026-04-23 01:42 21.32030 -157.73047 8009 ft 285 kts 89°
2026-04-23 01:43 21.31993 -157.70917 8805 ft 288 kts 89°
2026-04-23 01:43 21.31959 -157.68782 9571 ft 292 kts 89°
2026-04-23 01:43 21.31927 -157.66577 10345 ft 295 kts 89°
2026-04-23 01:43 21.31889 -157.64386 11106 ft 298 kts 89°
2026-04-23 01:44 21.31845 -157.62164 11865 ft 300 kts 89°
2026-04-23 01:44 21.31797 -157.59937 12649 ft 302 kts 89°
2026-04-23 01:44 21.31742 -157.57692 13344 ft 305 kts 89°
2026-04-23 01:44 21.31679 -157.55400 13806 ft 307 kts 89°
2026-04-23 01:45 21.31613 -157.53117 14060 ft 308 kts 89°
2026-04-23 01:45 21.31505 -157.50833 14062 ft 309 kts 97°
2026-04-23 01:45 21.30656 -157.48718 14055 ft 313 kts 128°
2026-04-23 01:45 21.28929 -157.47278 14053 ft 318 kts 154°
2026-04-23 01:46 21.28001 -157.46910 14055 ft 320 kts 165°
2026-04-23 01:46 21.25766 -157.46762 14038 ft 322 kts 189°
2026-04-23 01:46 21.23678 -157.47575 14021 ft 325 kts 214°
2026-04-23 01:46 21.22010 -157.49327 14034 ft 350 kts 239°
2026-04-23 01:47 21.21183 -157.51845 14023 ft 371 kts 266°
2026-04-23 01:47 21.21294 -157.54671 14045 ft 392 kts 278°
2026-04-23 01:47 21.21621 -157.57646 14038 ft 415 kts 278°
2026-04-23 01:47 21.21971 -157.60773 14016 ft 424 kts 278°
2026-04-23 01:48 21.22297 -157.63878 13965 ft 425 kts 278°
2026-04-23 01:48 21.22612 -157.67052 14010 ft 425 kts 277°
2026-04-23 01:48 21.22912 -157.70206 14029 ft 425 kts 277°
2026-04-23 01:48 21.23203 -157.73340 14042 ft 425 kts 277°
2026-04-23 01:49 21.23491 -157.76488 14049 ft 425 kts 277°
2026-04-23 01:49 21.23778 -157.79657 14051 ft 425 kts 277°
2026-04-23 01:49 21.24062 -157.82814 14050 ft 426 kts 277°
2026-04-23 01:49 21.24342 -157.85938 14053 ft 426 kts 277°
2026-04-23 01:50 21.24624 -157.89098 14055 ft 426 kts 277°
2026-04-23 01:50 21.24905 -157.92255 14059 ft 426 kts 277°
2026-04-23 01:50 21.25188 -157.95441 14063 ft 426 kts 277°
2026-04-23 01:50 21.25466 -157.98593 14064 ft 426 kts 277°
2026-04-23 01:51 21.25746 -158.01756 14067 ft 426 kts 277°
2026-04-23 01:51 21.26021 -158.04886 14071 ft 426 kts 277°
2026-04-23 01:51 21.26298 -158.08034 14069 ft 426 kts 277°
2026-04-23 01:51 21.26579 -158.11235 14069 ft 427 kts 277°
2026-04-23 01:52 21.26857 -158.14403 14067 ft 427 kts 277°
2026-04-23 01:52 21.27132 -158.17551 14067 ft 426 kts 277°
2026-04-23 01:52 21.27408 -158.20709 14067 ft 426 kts 277°
2026-04-23 01:52 21.27682 -158.23869 14082 ft 426 kts 277°
2026-04-23 01:53 21.27957 -158.27043 14104 ft 427 kts 277°
2026-04-23 01:53 21.28230 -158.30190 14093 ft 427 kts 277°
2026-04-23 01:53 21.28502 -158.33351 14095 ft 427 kts 277°
2026-04-23 01:53 21.28773 -158.36502 14074 ft 427 kts 277°
2026-04-23 01:54 21.29059 -158.39720 14076 ft 427 kts 278°
2026-04-23 01:54 21.29405 -158.42853 14069 ft 427 kts 278°
2026-04-23 01:54 21.29751 -158.46004 14060 ft 427 kts 278°
2026-04-23 01:54 21.30302 -158.49147 14034 ft 425 kts 290°
2026-04-23 01:55 21.31618 -158.51961 14061 ft 422 kts 303°
2026-04-23 01:55 21.33158 -158.54616 14054 ft 423 kts 303°
2026-04-23 01:55 21.34710 -158.57278 14051 ft 423 kts 303°
2026-04-23 01:55 21.36276 -158.59963 13888 ft 417 kts 303°
2026-04-23 01:56 21.37784 -158.62549 13645 ft 405 kts 303°
2026-04-23 01:56 21.39266 -158.65094 13328 ft 395 kts 303°
2026-04-23 01:56 21.40708 -158.67578 12836 ft 391 kts 303°
2026-04-23 01:56 21.42132 -158.70039 12320 ft 388 kts 303°
2026-04-23 01:57 21.43545 -158.72479 11813 ft 384 kts 303°
2026-04-23 01:57 21.44948 -158.74898 11299 ft 381 kts 303°
2026-04-23 01:57 21.46338 -158.77293 10709 ft 373 kts 303°
2026-04-23 01:57 21.47664 -158.79579 10033 ft 352 kts 303°
2026-04-23 01:58 21.48930 -158.81758 9398 ft 335 kts 303°
2026-04-23 01:58 21.50123 -158.83815 8927 ft 319 kts 303°
2026-04-23 01:58 21.51270 -158.85792 8543 ft 303 kts 303°
2026-04-23 01:58 21.52350 -158.87646 8225 ft 288 kts 303°
2026-04-23 01:59 21.53397 -158.89441 8117 ft 282 kts 303°
2026-04-23 01:59 21.54436 -158.91225 8059 ft 280 kts 303°
2026-04-23 01:59 21.55466 -158.92993 8018 ft 277 kts 303°
2026-04-23 01:59 21.56476 -158.94728 7721 ft 277 kts 303°
2026-04-23 02:00 21.57503 -158.96493 7379 ft 277 kts 303°
2026-04-23 02:00 21.58522 -158.98245 7064 ft 276 kts 303°
2026-04-23 02:00 21.59540 -158.99999 6751 ft 275 kts 304°
2026-04-23 02:00 21.60541 -159.01723 6448 ft 274 kts 304°
2026-04-23 02:01 21.61554 -159.03468 6139 ft 273 kts 304°
2026-04-23 02:01 21.62558 -159.05197 5826 ft 272 kts 304°
2026-04-23 02:01 21.63561 -159.06924 5512 ft 271 kts 303°
2026-04-23 02:01 21.64558 -159.08647 5203 ft 271 kts 303°
2026-04-23 02:02 21.65547 -159.10353 4905 ft 270 kts 303°
2026-04-23 02:02 21.66530 -159.12051 4612 ft 268 kts 303°
2026-04-23 02:02 21.67519 -159.13762 4314 ft 267 kts 304°
2026-04-23 02:02 21.68505 -159.15465 4014 ft 267 kts 303°
2026-04-23 02:03 21.69476 -159.17143 3717 ft 266 kts 304°
2026-04-23 02:03 21.70460 -159.18843 3420 ft 265 kts 303°
2026-04-23 02:03 21.71433 -159.20526 3123 ft 264 kts 303°
2026-04-23 02:03 21.72398 -159.22194 2982 ft 263 kts 303°
2026-04-23 02:04 21.73427 -159.23822 2957 ft 262 kts 315°
2026-04-23 02:04 21.74880 -159.24927 2968 ft 258 kts 338°
2026-04-23 02:04 21.76580 -159.25635 2978 ft 259 kts 341°
2026-04-23 02:04 21.78253 -159.26325 2978 ft 260 kts 340°
2026-04-23 02:05 21.79963 -159.27052 2973 ft 260 kts 340°
2026-04-23 02:05 21.81653 -159.27731 2978 ft 260 kts 347°
2026-04-23 02:05 21.83435 -159.27652 2968 ft 255 kts 24°
2026-04-23 02:05 21.84871 -159.26553 2988 ft 256 kts 43°
2026-04-23 02:06 21.86170 -159.25214 2985 ft 258 kts 44°
2026-04-23 02:06 21.87480 -159.23888 2990 ft 257 kts 43°
2026-04-23 02:06 21.88806 -159.22592 2986 ft 256 kts 41°
2026-04-23 02:06 21.90149 -159.21312 2981 ft 256 kts 41°
2026-04-23 02:07 21.91483 -159.20059 2985 ft 256 kts 41°
2026-04-23 02:07 21.92843 -159.18790 2984 ft 256 kts 41°
2026-04-23 02:07 21.94201 -159.17529 2988 ft 256 kts 41°
2026-04-23 02:07 21.95543 -159.16273 2988 ft 256 kts 44°
2026-04-23 02:08 21.96526 -159.14725 2961 ft 252 kts 72°
2026-04-23 02:08 21.96625 -159.12885 2967 ft 241 kts 103°
2026-04-23 02:08 21.95774 -159.11258 3175 ft 263 kts 135°
2026-04-23 02:08 21.94229 -159.10268 3561 ft 255 kts 163°
2026-04-23 02:09 21.92497 -159.10164 3566 ft 246 kts 188°
2026-04-23 02:09 21.90839 -159.10547 3446 ft 240 kts 194°
2026-04-23 02:09 21.89235 -159.11011 3319 ft 234 kts 195°
2026-04-23 02:09 21.87671 -159.11485 3193 ft 228 kts 195°
2026-04-23 02:10 21.86155 -159.11951 3063 ft 222 kts 195°
2026-04-23 02:10 21.84668 -159.12411 2895 ft 219 kts 195°
2026-04-23 02:10 21.83206 -159.12865 2692 ft 218 kts 195°
2026-04-23 02:10 21.81771 -159.13342 2475 ft 217 kts 204°
2026-04-23 02:11 21.80621 -159.14384 2265 ft 214 kts 242°
2026-04-23 02:11 21.80260 -159.15887 2090 ft 208 kts 278°
2026-04-23 02:11 21.80621 -159.17394 2014 ft 208 kts 292°
2026-04-23 02:11 21.81165 -159.18852 1975 ft 211 kts 295°
2026-04-23 02:12 21.81737 -159.20288 1970 ft 210 kts 295°
2026-04-23 02:12 21.82322 -159.21739 1975 ft 211 kts 295°
2026-04-23 02:12 21.82891 -159.23160 1964 ft 199 kts 295°
2026-04-23 02:12 21.83423 -159.24497 1967 ft 190 kts 295°
2026-04-23 02:13 21.83946 -159.25818 1978 ft 190 kts 295°
2026-04-23 02:13 21.84463 -159.27122 1981 ft 190 kts 295°
2026-04-23 02:13 21.84981 -159.28433 1985 ft 190 kts 295°
2026-04-23 02:13 21.85498 -159.29744 1988 ft 190 kts 295°
2026-04-23 02:14 21.86015 -159.31052 1991 ft 190 kts 295°
2026-04-23 02:14 21.86535 -159.32361 1997 ft 190 kts 295°
2026-04-23 02:14 21.87073 -159.33655 1990 ft 189 kts 306°
2026-04-23 02:14 21.88052 -159.34502 1889 ft 175 kts 348°
2026-04-23 02:15 21.90413 -159.34080 1264 ft 176 kts 18°
2026-04-23 02:15 21.91604 -159.33774 1050 ft 173 kts 11°
2026-04-23 02:15 21.92772 -159.33629 812 ft 166 kts
2026-04-23 02:16 21.93903 -159.33568 595 ft 156 kts
2026-04-23 02:16 21.94963 -159.33586 417 ft 149 kts
2026-04-23 02:16 21.96018 -159.33585 230 ft 150 kts
2026-04-23 02:16 21.97027 -159.33586 125 ft 131 kts
2026-04-23 02:17 21.97721 -159.33585 124 ft 52 kts
2026-04-23 02:17 21.97979 -159.33575 117 ft 21 kts
2026-04-23 02:17 21.98102 -159.33597 117 ft 15 kts 336°
2026-04-23 02:17 21.98158 -159.33670 123 ft 9 kts 306°